Weather History for Izmir, Turkey

Change the Weather History Date:

Friday, March 1, 2013

  Actual Average Record
Temperature  
Mean Temperature 45 °F -  
Max Temperature 54 °F 58 °F 68 °F (2002)
Min Temperature 36 °F 39 °F 28 °F (2009)
Degree Days  
Heating Degree Days 20    
Moisture  
Dew Point 35 °F    
Average Humidity 67    
Maximum Humidity 87    
Minimum Humidity 47    
Precipitation  
Precipitation 0.00 in - - ()
Sea Level Pressure  
Sea Level Pressure 30.05 in    
Wind  
Wind Speed 11 mph ()    
Max Wind Speed 18 mph    
Max Gust Speed -    
Visibility 9.0 miles    
Events      
Averages and records for this station are not official NWS values.
T = Trace of Precipitation, MM = Missing Value Source: Averaged Metar Reports

Daily Weather History Graph

Daily Weather History Graph

Search for Another Location

Airport:

Trip Planner

Search our weather history database for the weather conditions in past years. The results will help you decide how hot, cold, wet, or windy it might be!

Date:

Astronomy

Mar. 01, 2013 Rise Set
Actual Time 6:43 AM EET 6:04 PM EET
Civil Twilight 6:16 AM EET 6:31 PM EET
Nautical Twilight 5:46 AM EET 7:01 PM EET
Astronomical Twilight 5:15 AM EET 7:32 PM EET
Moon 10:12 PM EET (3/1) 8:21 AM EET (3/1)
Length of Visible Light 12h 14m
Length of Day
11h 21m
Waning Gibbous, 86% of the Moon is Illuminated
Mar 1
Waning Gibbous
Mar 4
Last Quarter
Mar 11
New
Mar 19
First Quarter
Mar 27
Full

Hourly Weather History & Observations

Time (EET) Temp. Windchill Dew Point Humidity Pressure Visibility Wind Dir Wind Speed Gust Speed Precip Events Conditions
12:20 AM 42.8 °F 35.8 °F 33.8 °F 70% 30.09 in - North 13.8 mph - N/A   Clear
12:50 AM 42.8 °F 35.4 °F 33.8 °F 70% 30.09 in - North 15.0 mph - N/A   Clear
1:20 AM 41.0 °F 33.9 °F 33.8 °F 76% 30.09 in - North 12.7 mph - N/A   Clear
1:50 AM 41.0 °F 33.9 °F 33.8 °F 76% 30.09 in - North 12.7 mph - N/A   Clear
2:00 AM 41 °F - 35 °F 70% 30.13 in 9 mi North 12.7 mph - -  
2:20 AM 41.0 °F 33.9 °F 33.8 °F 76% 30.09 in - North 12.7 mph - N/A   Clear
2:50 AM 41.0 °F 34.3 °F 35.6 °F 81% 30.09 in - North 11.5 mph - N/A   Clear
3:20 AM 39.2 °F 35.0 °F 33.8 °F 81% 30.09 in - North 5.8 mph - N/A   Clear
3:50 AM 39.2 °F 33.6 °F 33.8 °F 81% 30.09 in - North 8.1 mph - N/A   Clear
4:20 AM 41.0 °F 36.4 °F 33.8 °F 76% 30.09 in - North 6.9 mph - N/A   Clear
4:50 AM 39.2 °F - 33.8 °F 81% 30.09 in - Variable 2.3 mph - N/A   Clear
5:20 AM 39.2 °F 35.0 °F 33.8 °F 81% 30.09 in - NNE 5.8 mph - N/A   Clear
5:50 AM 39.2 °F 32.0 °F 33.8 °F 81% 30.09 in - NNE 11.5 mph - N/A   Clear
6:20 AM 37.4 °F 31.4 °F 33.8 °F 87% 30.09 in - NNE 8.1 mph - N/A   Clear
6:50 AM 39.2 °F 33.0 °F 33.8 °F 81% 30.09 in - NNE 9.2 mph - N/A   Clear
7:20 AM 41.0 °F 33.5 °F 35.6 °F 81% 30.06 in - North 13.8 mph - N/A   Clear
7:50 AM 41.0 °F 35.8 °F 35.6 °F 81% 30.09 in - NNE 8.1 mph - N/A   Clear
8:00 AM 42 °F - 35 °F 66% 30.11 in 9 mi NNE 8.1 mph - -  
8:20 AM 44.6 °F 40.7 °F 35.6 °F 71% 30.09 in - NNE 6.9 mph - N/A   Clear
8:50 AM 44.6 °F 38.4 °F 35.6 °F 71% 30.09 in - North 12.7 mph - N/A   Clear
9:20 AM 46.4 °F 40.1 °F 33.8 °F 62% 30.09 in - North 15.0 mph - N/A   Clear
9:50 AM 48.2 °F - 33.8 °F 58% 30.06 in - North 16.1 mph - N/A   Clear
10:20 AM 48.2 °F - 33.8 °F 58% 30.06 in - North 15.0 mph - N/A   Clear
10:50 AM 50.0 °F - 35.6 °F 58% 30.06 in - North 13.8 mph - N/A   Clear
11:20 AM 50.0 °F - 33.8 °F 54% 30.06 in - North 17.3 mph - N/A   Clear
11:50 AM 50.0 °F - 33.8 °F 54% 30.06 in - North 15.0 mph - N/A   Clear
12:20 PM 51.8 °F - 33.8 °F 50% 30.04 in - NNW 16.1 mph - N/A   Clear
12:50 PM 51.8 °F - 33.8 °F 50% 30.04 in - NNW 18.4 mph - N/A   Clear
1:20 PM 51.8 °F - 35.6 °F 54% 30.04 in - North 17.3 mph - N/A   Clear
1:50 PM 51.8 °F - 37.4 °F 58% 30.01 in - North 17.3 mph - N/A   Clear
2:00 PM 52 °F - 38 °F 48% 30.04 in 9 mi North 17.3 mph - -  
2:20 PM 51.8 °F - 35.6 °F 54% 30.01 in - North 17.3 mph - N/A   Clear
2:50 PM 53.6 °F - 35.6 °F 51% 30.01 in - North 18.4 mph - N/A   Clear
3:20 PM 53.6 °F - 33.8 °F 47% 30.01 in - North 17.3 mph - N/A   Clear
3:50 PM 53.6 °F - 35.6 °F 51% 30.01 in - North 18.4 mph - N/A   Clear
4:20 PM 53.6 °F - 35.6 °F 51% 30.01 in - North 16.1 mph - N/A   Clear
4:50 PM 51.8 °F - 35.6 °F 54% 29.98 in - North 18.4 mph - N/A   Clear
5:20 PM 50.0 °F - 35.6 °F 58% 29.98 in - North 17.3 mph - N/A   Clear
5:50 PM 50.0 °F - 35.6 °F 58% 29.98 in - North 15.0 mph - N/A   Clear
6:20 PM 48.2 °F - 35.6 °F 62% 30.01 in - North 15.0 mph - N/A   Clear
6:50 PM 48.2 °F - 35.6 °F 62% 30.01 in - North 12.7 mph - N/A   Clear
7:20 PM 46.4 °F 41.9 °F 35.6 °F 66% 30.01 in - North 9.2 mph - N/A   Clear
7:50 PM 46.4 °F 41.9 °F 33.8 °F 62% 30.01 in - NNE 9.2 mph - N/A   Clear
8:00 PM 47 °F - 34 °F 50% 30.03 in 9 mi NNE 9.2 mph - -  
8:20 PM 46.4 °F 42.4 °F 33.8 °F 62% 30.01 in - NNE 8.1 mph - N/A   Clear
8:50 PM 46.4 °F 42.9 °F 33.8 °F 62% 30.01 in - NNE 6.9 mph - N/A   Clear
9:20 PM 41.0 °F - 35.6 °F 81% 30.04 in - Variable 2.3 mph - N/A   Clear
9:50 PM 42.8 °F - 33.8 °F 70% 30.04 in - Variable 1.2 mph - N/A   Clear
10:20 PM 39.2 °F - 33.8 °F 81% 30.04 in - Calm Calm - N/A   Clear
10:50 PM 37.4 °F - 33.8 °F 87% 30.04 in - WSW 1.2 mph - N/A   Clear
11:20 PM 37.4 °F - 33.8 °F 87% 30.04 in - Calm Calm - N/A   Clear
11:50 PM 37.4 °F - 33.8 °F 87% 30.04 in - Calm Calm - N/A   Clear